Location: Namasale
(1.5000°N, 32.6167°E)
Time: 01:18:23
(UTC+00:00)

Cosmos 2058 Rocket - Pass Details

Date: 09 April 2020
Orbit: 610 x 639 km, 82.5° (Epoch: 06 June)

Event Time Altitude Azimuth Distance (km) Brightness Sun altitude
Rises 17:03:00 0° 178° (S) 2,926 6.4 -17.6°
Reaches altitude 10° 17:05:15 10° 174° (S) 2,020 5.5 -18.2°
Maximum altitude 17:09:41 61° 94° (E) 721 3.0 -19.3°
Drops below altitude 10° 17:14:07 10° 13° (NNE) 2,020 5.6 -20.4°
Sets 17:16:22 0° 10° (N) 2,926 6.5 -20.9°
